Location: Bowman Observatory
(41.0326°N, 73.6210°W)
Time: 18:24:52
(UTC-04:00)

Cosmos 2298 Rocket - Visible Passes

Search period start: 26 May 2016 00:00
Search period end: 05 June 2016 00:00
Orbit: 776 x 784 km, 74.0° (Epoch: 25 May)

Date Brightness Start Highest point End Pass type
(mag) Time Alt. Az. Time Alt. Az. Time Alt. Az.
26 May 4.9 04:00:37 10° S 04:05:42 48° ESE 04:10:50 10° NNE visible
27 May 5.6 03:27:50 10° SSE 03:32:26 30° E 03:37:03 10° NE visible
28 May 6.2 02:55:34 10° SE 02:59:15 19° E 03:02:56 10° NE visible
28 May 4.4 04:35:55 10° SW 04:41:06 52° WNW 04:46:20 10° N visible
29 May 6.5 02:24:22 10° ESE 02:26:07 12° E 02:27:53 10° ENE visible
29 May 4.0 04:03:22 16° SSW 04:07:38 81° WNW 04:13:00 10° NNE visible
30 May 4.3 03:30:48 22° S 03:34:15 64° ESE 03:39:33 10° NNE visible
31 May 5.0 02:58:13 23° SSE 03:00:56 40° ESE 03:05:54 10° NE visible
31 May 5.3 04:38:55 10° WSW 04:43:22 26° WNW 04:47:51 10° N visible
01 Jun 5.7 02:25:35 20° SE 02:27:42 25° E 02:32:01 10° NE visible
01 Jun 4.8 04:06:07 17° SW 04:09:46 40° WNW 04:14:48 10° N visible
02 Jun 6.1 01:52:55 14° ESE 01:54:32 16° E 01:57:39 10° ENE visible
02 Jun 4.2 03:33:27 27° SW 03:36:15 62° WNW 03:41:34 10° NNE visible
03 Jun 4.0 03:00:45 39° SSW 03:02:49 84° ESE 03:08:11 10° NNE visible
03 Jun 6.1 04:43:07 10° W 04:45:52 14° NW 04:48:37 10° NNW visible
04 Jun 4.5 02:28:01 41° SSE 02:29:28 53° ESE 02:34:39 10° NNE visible
04 Jun 5.7 04:08:32 11° WSW 04:12:08 21° WNW 04:16:07 10° N visible
